JA3VQW-13 Weather Reports


time (UTC)temp
C
wind
direction
speed
KPH
gust
KPH
rain 1hr
cm
rain 24hr
cm
rain mn
cm
humidity
%
barometer
mb
20260510161131 16 135 0.0 0.0 0.00 0.00 0.00 31 1010.0
20260510160617 16 135 0.0 0.0 0.00 0.00 0.00 31 1010.0
20260510155632 16 135 0.0 0.0 0.00 0.00 0.00 30 1010.0
20260510154132 16 135 0.0 0.0 0.00 0.00 0.00 29 1010.0
20260510153617 16 135 0.0 0.0 0.00 0.00 0.00 29 1010.0
20260510152632 16 135 0.0 0.0 0.00 0.00 0.00 28 1010.0
20260510151132 16 135 0.0 0.0 0.00 0.00 0.00 27 1010.0
20260510150618 16 135 0.0 0.0 0.00 0.00 0.00 27 1011.0
20260510145632 17 135 0.0 0.0 0.00 0.00 0.00 26 1011.0
20260510144131 17 135 0.0 0.0 0.00 0.00 0.00 26 1010.0
20260510143618 17 135 0.0 0.0 0.00 0.00 0.00 25 1011.0
20260510142631 17 135 0.0 0.0 0.00 0.00 0.00 25 1011.0
20260510141131 17 135 0.0 0.0 0.00 0.00 0.00 24 1011.0
20260510140617 17 135 0.0 0.0 0.00 0.00 0.00 24 1011.0
20260510135632 17 135 0.0 0.0 0.00 0.00 0.00 24 1011.0
20260510134132 17 135 0.0 0.0 0.00 0.00 0.00 24 1011.0
20260510133616 17 135 0.0 0.0 0.00 0.00 0.00 23 1011.0
20260510132631 18 135 0.0 0.0 0.00 0.00 0.00 24 1011.0
20260510131133 18 135 0.0 0.0 0.00 0.00 0.00 23 1011.0
20260510130618 18 135 0.0 0.0 0.00 0.00 0.00 23 1011.0
20260510125631 18 135 0.0 0.0 0.00 0.00 0.00 23 1011.0
20260510124131 18 135 0.0 0.0 0.00 0.00 0.00 20 1011.0
20260510123618 19 135 0.0 0.0 0.00 0.00 0.00 20 1011.0
20260510122631 19 135 0.0 0.0 0.00 0.00 0.00 20 1011.0
20260510121131 19 135 0.0 0.0 0.00 0.00 0.00 17 1011.0
20260510120618 20 135 0.0 0.0 0.00 0.00 0.00 17 1010.0
20260510115630 20 135 0.0 0.0 0.00 0.00 0.00 17 1010.0
20260510114130 20 135 0.0 0.0 0.00 0.00 0.00 17 1011.0
20260510113617 20 135 0.0 0.0 0.00 0.00 0.00 17 1010.0
20260510112630 21 135 0.0 0.0 0.00 0.00 0.00 17 1010.0
20260510111130 21 135 3.2 3.2 0.00 0.00 0.00 17 1010.0
20260510110618 21 135 3.2 4.8 0.00 0.00 0.00 17 1010.0
20260510105631 21 135 0.0 3.2 0.00 0.00 0.00 17 1010.0
20260510104131 21 180 0.0 4.8 0.00 0.00 0.00 17 1010.0
20260510103617 22 180 0.0 0.0 0.00 0.00 0.00 16 1010.0
20260510102630 22 180 0.0 3.2 0.00 0.00 0.00 16 1010.0
20260510101131 22 225 0.0 3.2 0.00 0.00 0.00 16 1009.0
20260510100617 22 225 0.0 3.2 0.00 0.00 0.00 16 1009.0
20260510095631 22 225 0.0 3.2 0.00 0.00 0.00 16 1009.0
20260510094130 23 315 3.2 4.8 0.00 0.00 0.00 16 1009.0
20260510093617 23 180 0.0 4.8 0.00 0.00 0.00 16 1009.0
20260510092630 24 135 4.8 3.2 0.00 0.00 0.00 15 1009.0
20260510091132 25 305 3.2 9.7 0.00 0.00 0.00 15 1009.0
20260510090616 26 180 1.6 4.8 0.00 0.00 0.00 15 1010.0
20260510085630 26 268 1.6 9.7 0.00 0.00 0.00 15 1010.0
20260510084131 26 315 1.6 4.8 0.00 0.00 0.00 15 1010.0
20260510083616 27 315 1.6 4.8 0.00 0.00 0.00 14 1010.0
20260510082631 27 315 0.0 0.0 0.00 0.00 0.00 14 1010.0
20260510081131 27 315 4.8 4.8 0.00 0.00 0.00 14 1010.0
20260510080616 27 315 1.6 3.2 0.00 0.00 0.00 14 1010.0
20260510075630 27 270 1.6 4.8 0.00 0.00 0.00 14 1010.0
20260510074131 27 270 4.8 9.7 0.00 0.00 0.00 14 1010.0
20260510073617 27 270 4.8 8.0 0.00 0.00 0.00 14 1009.0
20260510072631 29 180 4.8 8.0 0.00 0.00 0.00 13 1009.0
20260510071130 30 180 0.0 0.0 0.00 0.00 0.00 13 1009.0
20260510070617 30 180 0.0 0.0 0.00 0.00 0.00 13 1009.0
20260510065630 30 180 0.0 0.0 0.00 0.00 0.00 13 1009.0
20260510064131 30 180 1.6 4.8 0.00 0.00 0.00 13 1009.0
20260510063616 30 180 1.6 4.8 0.00 0.00 0.00 13 1009.0
20260510062632 30 180 0.0 0.0 0.00 0.00 0.00 13 1009.0
20260510061131 30 180 0.0 0.0 0.00 0.00 0.00 13 1009.0
20260510060616 28 180 0.0 0.0 0.00 0.00 0.00 14 1009.0
20260510055631 28 180 0.0 3.2 0.00 0.00 0.00 14 1009.0
20260510054131 28 147 4.8 8.0 0.00 0.00 0.00 14 1009.0
20260510053616 28 159 1.6 4.8 0.00 0.00 0.00 13 1009.0
20260510052631 27 135 0.0 0.0 0.00 0.00 0.00 14 1009.0
20260510051130 26 270 4.8 8.0 0.00 0.00 0.00 15 1009.0
20260510050615 27 270 3.2 9.7 0.00 0.00 0.00 14 1009.0
20260510045631 27 270 1.6 3.2 0.00 0.00 0.00 14 1009.0
20260510044130 27 270 0.0 0.0 0.00 0.00 0.00 14 1009.0
20260510043617 27 150 0.0 4.8 0.00 0.00 0.00 14 1010.0
20260510042630 27 168 0.0 4.8 0.00 0.00 0.00 14 1010.0
20260510040616 25 225 0.0 0.0 0.00 0.00 0.00 15 1010.0
20260510035630 25 180 3.2 4.8 0.00 0.00 0.00 15 1010.0
20260510034131 25 225 0.0 0.0 0.00 0.00 0.00 15 1010.0
20260510033616 25 225 0.0 3.2 0.00 0.00 0.00 15 1010.0
20260510032630 23 226 0.0 0.0 0.00 0.00 0.00 16 1010.0
20260510031129 24 315 4.8 8.0 0.00 0.00 0.00 15 1010.0
20260510030616 25 185 0.0 8.0 0.00 0.00 0.00 15 1011.0
20260510025632 24 270 0.0 4.8 0.00 0.00 0.00 15 1011.0
20260510024130 23 270 3.2 4.8 0.00 0.00 0.00 16 1011.0
20260510023617 23 225 0.0 4.8 0.00 0.00 0.00 16 1011.0
20260510022632 22 315 0.0 0.0 0.00 0.00 0.00 16 1011.0
20260510021130 21 270 0.0 0.0 0.00 0.00 0.00 17 1011.0
20260510020615 21 164 0.0 3.2 0.00 0.00 0.00 19 1011.0
20260510013616 20 225 0.0 3.2 0.00 0.00 0.00 20 1011.0
20260510012631 20 268 1.6 9.7 0.00 0.00 0.00 20 1011.0
20260510011131 20 180 0.0 3.2 0.00 0.00 0.00 20 1011.0
20260510010616 20 180 1.6 3.2 0.00 0.00 0.00 20 1011.0
20260510005629 20 180 0.0 0.0 0.00 0.00 0.00 20 1011.0
20260510004129 19 180 0.0 0.0 0.00 0.00 0.00 20 1011.0
20260510003616 19 180 0.0 0.0 0.00 0.00 0.00 20 1012.0
20260510002629 18 180 0.0 0.0 0.00 0.00 0.00 20 1012.0
20260510000616 18 135 0.0 0.0 0.00 0.00 0.00 24 1012.0
20260509235630 18 135 0.0 0.0 0.00 0.00 0.00 27 1012.0
20260509234131 17 135 0.0 0.0 0.00 0.00 0.00 33 1011.0
20260509233615 17 135 0.0 0.0 0.00 0.00 0.00 34 1011.0
20260509232630 17 135 0.0 0.0 0.00 0.00 0.00 35 1011.0
20260509231130 16 135 0.0 0.0 0.00 0.00 0.00 36 1011.0
20260509230615 16 135 0.0 0.0 0.00 0.00 0.00 35 1011.0
20260509225629 16 135 0.0 0.0 0.00 0.00 0.00 36 1011.0
20260509224132 16 135 0.0 0.0 0.00 0.00 0.00 37 1012.0
20260509223619 16 135 0.0 0.0 0.00 0.00 0.00 37 1012.0
20260509222632 15 135 0.0 0.0 0.00 0.00 0.00 43 1012.0
20260509221132 14 135 0.0 0.0 0.00 0.00 0.00 44 1011.0
20260509220619 14 135 0.0 0.0 0.00 0.00 0.00 45 1012.0
20260509215631 14 135 0.0 0.0 0.00 0.00 0.00 46 1012.0
20260509214131 13 135 0.0 0.0 0.00 0.00 0.00 47 1012.0
20260509213618 13 135 0.0 0.0 0.00 0.00 0.00 47 1012.0
20260509212632 13 135 0.0 0.0 0.00 0.00 0.00 48 1012.0
20260509211132 12 135 0.0 0.0 0.00 0.00 0.00 49 1011.0
20260509210619 12 135 0.0 0.0 0.00 0.00 0.00 49 1012.0
20260509205632 12 135 0.0 0.0 0.00 0.00 0.00 48 1012.0
20260509204131 12 135 0.0 0.0 0.00 0.00 0.00 48 1011.0
20260509203618 12 135 0.0 0.0 0.00 0.00 0.00 48 1011.0
20260509202631 12 135 0.0 0.0 0.00 0.00 0.00 49 1011.0
20260509201132 12 135 0.0 0.0 0.00 0.00 0.00 49 1011.0
20260509200618 12 135 0.0 0.0 0.00 0.00 0.00 48 1011.0
20260509195633 12 135 0.0 0.0 0.00 0.00 0.00 48 1011.0
20260509194133 12 135 0.0 0.0 0.00 0.00 0.00 47 1010.0
20260509193618 12 135 0.0 0.0 0.00 0.00 0.00 47 1010.0
20260509192633 12 135 0.0 0.0 0.00 0.00 0.00 47 1010.0
20260509191133 12 135 0.0 0.0 0.00 0.00 0.00 46 1010.0
20260509190617 12 135 0.0 0.0 0.00 0.00 0.00 46 1011.0
20260509185632 12 135 0.0 0.0 0.00 0.00 0.00 46 1011.0
20260509184131 12 135 0.0 0.0 0.00 0.00 0.00 45 1010.0
20260509183618 12 135 0.0 0.0 0.00 0.00 0.00 45 1010.0
20260509182631 12 135 0.0 0.0 0.00 0.00 0.00 44 1010.0
20260509181131 13 135 0.0 0.0 0.00 0.00 0.00 43 1010.0
20260509180618 13 135 0.0 0.0 0.00 0.00 0.00 42 1010.0
20260509175633 13 135 0.0 0.0 0.00 0.00 0.00 42 1010.0
20260509174132 13 135 0.0 0.0 0.00 0.00 0.00 40 1010.0
20260509173618 13 135 0.0 3.2 0.00 0.00 0.00 40 1010.0
20260509172633 13 135 0.0 0.0 0.00 0.00 0.00 40 1010.0
20260509171132 13 135 0.0 0.0 0.00 0.00 0.00 39 1010.0
20260509170617 13 135 0.0 0.0 0.00 0.00 0.00 39 1010.0
20260509165632 13 135 0.0 0.0 0.00 0.00 0.00 38 1010.0
20260509164132 13 135 0.0 0.0 0.00 0.00 0.00 38 1010.0
20260509163617 13 135 0.0 0.0 0.00 0.00 0.00 38 1010.0
20260509162632 14 135 0.0 0.0 0.00 0.00 0.00 38 1010.0